Temperature
24 24 24 23 23 22 22 22 21 21 20 20 20 19 19 19 19 19 19 19 19 18 18 18 18 18 18 18 18 18 18 18 18 18 18 18 18 18 18 18 18 18 18
24 24 24 23 23 23 22 22 21 21 21 20 20 20 20 19 19 19 19 19 19 19 19 18 18 18 18 18 18 18 18 18 18 17 17 18 18 18 19 18 18 18 18
24 24 24 23 23 23 23 22 22 22 21 21 20 20 19 19 19 19 19 19 19 19 19 19 19 18 18 18 18 18 18 18 18 17 17 17 18 18 19 19 18 18 18
25 24 24 24 24 24 23 23 22 22 21 21 20 20 20 20 20 20 19 19 19 19 19 19 19 19 18 18 18 18 18 18 18 18 17 17 17 17 18 18 18 18 18
25 25 25 25 24 24 24 23 23 22 22 21 21 21 20 20 20 20 19 19 19 19 19 19 19 19 19 18 18 18 18 18 18 18 17 17 17 17 17 17 18 18 18
25 25 25 25 24 24 24 23 23 22 22 22 21 21 21 20 20 20 20 19 19 19 19 19 19 19 19 19 18 18 18 18 18 18 17 17 17 17 17 17 17 17 18
25 25 24 24 24 24 24 23 23 23 22 22 21 21 21 21 20 20 20 20 20 19 19 19 19 19 19 19 18 18 18 18 18 18 18 17 17 17 17 17 17 17 17
25 25 25 24 24 24 24 23 23 23 22 22 22 21 21 20 20 20 20 20 20 20 19 19 19 19 19 19 18 18 18 18 18 18 18 18 17 17 17 17 17 17 17
25 25 25 25 24 24 24 24 23 23 22 22 22 21 21 21 20 20 20 20 20 20 20 19 19 19 19 18 18 18 18 18 18 18 18 18 17 17 17 17 17 17 16
25 25 25 25 24 24 24 24 23 23 22 22 22 21 21 21 20 20 20 20 20 20 19 19 19 19 19 19 18 18 18 18 18 18 18 18 18 17 17 17 17 17 16
25 25 25 25 25 24 24 23 23 23 22 22 22 22 21 21 21 20 20 20 20 20 19 19 19 19 19 19 18 18 18 18 18 18 18 18 17 17 17 17 17 17 16
25 25 25 24 24 24 23 23 23 23 22 22 22 22 22 21 21 21 20 20 20 19 19 19 19 19 19 19 18 18 18 18 18 18 18 18 17 17 17 17 17 17 16
24 24 24 24 23 23 23 23 23 23 22 22 22 21 21 21 21 21 21 20 20 19 19 19 19 19 19 18 18 18 18 18 18 18 18 17 17 17 17 17 17 16 16
24 23 23 23 23 23 23 22 22 22 22 21 21 21 21 21 21 21 20 20 20 19 19 19 18 18 18 18 18 18 18 18 18 18 17 17 17 17 17 17 17 16 16
23 23 22 22 22 22 22 22 22 22 21 21 21 21 21 21 21 20 20 20 19 19 19 19 18 18 18 18 18 18 18 18 18 18 18 17 17 17 17 17 16 16 16
22 22 22 22 22 22 22 22 21 21 21 21 21 20 20 20 20 20 20 20 19 19 19 18 18 18 18 18 18 18 18 18 18 17 17 17 17 17 17 16 16 16 16
21 21 21 21 21 21 21 21 21 21 21 20 20 20 20 20 20 20 19 19 19 19 18 18 18 18 18 18 18 18 17 17 17 17 17 17 17 16 16 16 16 16 15
21 21 21 21 21 21 21 21 21 20 20 20 20 20 20 19 19 19 19 19 18 18 18 18 18 18 17 17 17 17 17 17 17 17 17 16 16 16 16 16 15 15 15
21 21 20 20 20 20 20 20 20 19 19 19 19 19 19 19 19 19 19 18 18 18 18 17 17 17 17 17 17 17 17 16 16 16 16 16 16 16 15 15 15 15 15
21 20 20 20 20 19 19 19 19 18 18 19 19 19 19 18 19 18 18 18 18 17 17 17 17 17 17 17 16 16 16 16 16 16 16 15 15 15 15 15 15 14 14
20 20 20 19 19 19 18 18 18 18 18 18 18 18 18 18 18 17 17 17 17 17 16 16 16 16 16 16 16 16 16 16 15 15 15 15 15 15 15 14 14 14 14
19 19 19 19 18 18 18 18 17 18 17 17 17 17 17 17 17 17 17 17 16 16 16 16 15 16 16 16 16 15 15 15 15 15 15 14 14 14 14 14 13 13 13
19 18 18 18 18 17 17 17 17 17 17 17 17 17 16 16 16 16 16 16 16 16 16 15 15 15 15 15 15 15 15 15 14 14 14 14 14 13 13 13 13 13 12
18 18 18 17 17 17 16 16 16 16 16 16 16 16 16 15 15 15 15 15 15 15 15 15 15 15 15 15 15 15 14 14 14 14 13 13 13 13 12 12 12 12 12
17 17 17 16 16 16 16 16 16 16 15 15 15 15 15 15 15 15 15 15 15 15 14 14 14 14 14 15 14 14 14 14 14 13 13 13 12 12 12 12 12 12 11
16 16 16 16 16 16 16 15 15 15 15 15 15 15 14 14 14 14 14 14 14 14 14 14 14 14 14 14 14 14 13 13 13 13 13 12 12 12 12 12 12 11 11
Wind_Speed
13 14 15 15 14 12 12 12 11 10 7 5 4 4 4 3 3 5 8 10 10 10 7 4 4 4 4 4 4 3 2 2 1 0 3 4 3 4 5 5 5 6 9
12 14 14 15 15 14 13 12 11 11 9 7 5 4 4 4 4 4 6 9 10 10 8 6 5 5 4 4 4 3 2 2 1 2 0 3 4 3 3 3 4 4 4
19 17 16 15 15 15 15 14 12 11 10 8 4 3 2 1 1 3 4 5 8 9 7 6 5 5 5 4 4 4 4 3 2 2 3 2 3 3 3 2 2 2 2
16 16 17 17 17 17 15 13 13 11 10 9 7 7 6 5 5 4 4 4 6 7 7 7 6 6 5 5 5 4 4 4 3 2 2 3 3 1 3 3 2 2 3
17 18 18 18 16 16 14 13 12 11 10 10 10 8 6 5 3 3 4 4 4 5 6 6 6 6 5 5 5 4 4 4 4 3 2 1 1 2 2 3 4 3 3
17 16 15 13 12 13 12 12 12 11 11 11 10 9 8 7 5 5 5 4 3 4 5 5 5 6 5 5 5 5 5 4 4 3 3 3 2 3 3 3 3 3 3
14 13 12 12 12 13 13 12 12 11 11 11 10 9 9 8 8 6 6 5 4 4 5 5 5 5 5 5 5 4 4 4 4 4 3 3 4 3 3 3 3 2 3
12 13 13 13 13 14 14 13 13 11 10 10 9 8 7 6 6 7 6 6 5 5 5 5 5 6 6 6 5 4 4 4 4 4 3 3 3 3 3 3 2 1 2
12 12 12 12 12 13 14 14 13 10 10 10 8 7 7 6 6 6 6 5 5 5 5 5 6 6 5 5 5 4 5 4 4 3 3 3 2 2 2 3 3 3 2
9 10 12 12 12 12 11 12 11 11 9 9 9 8 7 7 6 5 6 6 6 5 5 6 6 6 6 5 5 4 4 5 4 3 3 3 2 1 1 2 2 3 4
7 9 10 11 10 10 10 10 10 9 9 9 8 7 7 7 6 6 6 6 6 6 6 6 6 6 6 5 5 5 5 5 4 3 3 3 2 1 1 1 1 2 3
7 8 9 8 9 9 9 10 10 10 10 10 9 8 7 7 7 7 7 6 6 6 6 6 6 6 6 6 6 6 6 6 5 5 4 3 2 2 1 1 1 1 2
7 7 7 8 9 9 9 8 9 9 9 8 8 8 7 7 8 8 6 5 5 5 4 5 6 6 6 6 6 6 6 6 6 5 5 4 3 2 2 1 1 1 1
7 8 7 7 8 7 7 8 7 7 7 7 8 8 8 8 8 7 6 6 5 5 5 5 5 5 5 6 6 6 6 5 5 5 5 4 4 4 3 2 2 1 1
8 6 5 5 6 6 5 5 6 6 6 7 7 8 8 7 6 6 6 5 5 5 5 5 5 5 5 5 5 5 6 6 5 4 4 4 5 5 4 2 2 2 2
7 6 6 6 5 5 5 4 4 4 5 7 7 7 6 6 6 7 6 5 5 5 5 5 5 6 5 6 8 7 5 6 6 5 4 3 3 3 3 3 4 4 4
6 6 6 5 4 4 5 5 5 4 4 4 5 5 5 5 5 6 5 5 5 5 5 5 5 5 5 7 8 9 6 6 6 5 4 3 3 3 2 2 2 2 2
5 5 5 5 3 3 3 3 4 4 5 4 4 4 4 5 5 5 6 6 5 5 5 5 5 4 4 6 7 8 6 5 5 6 6 5 4 4 4 3 2 1 1
5 4 4 5 3 2 3 3 2 2 3 4 4 5 5 5 5 6 7 6 6 5 5 4 5 5 5 6 7 7 5 5 5 5 5 6 5 5 6 4 3 1 1
5 4 4 4 3 1 1 3 2 2 3 4 5 5 5 5 5 6 6 5 5 5 4 4 5 5 5 6 7 8 5 5 4 4 4 6 6 7 8 5 5 4 3
4 4 4 3 2 2 3 2 1 2 4 3 3 3 3 4 4 4 3 3 3 3 4 5 5 5 6 6 7 8 6 6 5 4 4 4 7 7 8 6 5 6 4
3 4 3 2 1 2 3 2 2 3 2 2 2 3 3 3 2 3 3 3 3 4 5 5 5 5 5 6 6 7 7 6 5 5 4 4 7 7 7 6 5 5 4
2 2 3 2 0 1 2 2 3 2 1 1 2 2 2 3 3 4 4 4 4 5 5 5 6 5 4 4 6 7 7 8 6 5 6 5 7 6 5 6 6 5 3
1 1 2 1 1 1 1 2 3 2 1 1 2 2 2 3 3 3 3 4 4 5 5 5 6 5 4 4 4 5 5 6 5 4 4 5 6 4 4 3 3 3 3
1 2 2 1 2 2 2 2 2 1 1 2 2 2 2 3 3 3 3 4 4 6 6 6 6 6 7 7 8 7 6 6 6 5 3 2 2 3 3 3 3 3 2
1 1 1 1 2 2 2 2 2 2 2 2 3 3 3 3 3 3 3 3 4 4 6 7 7 6 7 8 8 8 8 9 9 6 4 4 5 5 5 4 4 3 4
Wind_Direction
182 176 174 172 169 170 171 172 172 179 173 171 172 180 201 207 202 205 206 202 202 199 190 195 191 189 196 213 212 203 217 238 221 327 316 307 281 253 240 234 231 226 222
177 179 177 174 175 176 177 176 177 179 181 183 180 181 186 204 207 209 206 203 197 197 197 190 193 192 195 215 215 200 199 242 184 158 21 325 331 317 269 247 233 240 232
183 182 182 182 179 181 182 183 184 183 185 180 167 166 150 184 199 215 213 212 201 199 201 196 193 195 190 205 211 199 193 222 238 186 164 179 256 299 312 296 255 237 234
187 184 184 185 186 188 185 182 182 183 184 176 173 174 184 197 208 204 207 212 203 201 205 201 194 193 192 200 211 199 193 188 221 242 216 197 185 212 308 320 316 273 244
189 189 188 187 188 187 184 182 181 184 183 181 183 185 195 203 203 196 202 209 208 205 206 201 196 197 199 201 203 193 192 189 195 201 210 225 219 201 208 281 307 313 272
189 190 187 180 181 180 179 180 182 188 186 185 186 190 195 195 191 200 201 204 208 217 215 202 198 199 198 198 197 193 194 200 197 194 192 192 201 214 203 236 270 284 285
188 184 180 177 180 181 180 178 181 188 189 188 191 193 195 191 194 199 201 195 202 214 223 214 205 205 203 198 192 192 199 198 199 204 209 208 213 205 190 201 242 266 285
186 184 184 182 181 183 181 179 181 183 183 187 193 190 189 191 197 197 194 199 208 215 216 212 210 208 201 199 193 200 209 203 207 215 210 214 224 207 192 191 192 256 297
182 183 178 178 179 183 183 180 178 179 182 186 185 185 189 191 197 198 197 205 213 216 213 209 206 208 203 198 190 202 208 202 209 217 217 218 225 208 204 191 180 178 228
174 177 174 175 177 181 179 171 171 177 180 182 184 191 193 194 194 194 205 212 217 221 208 205 203 203 200 198 191 198 205 199 209 205 199 208 222 217 203 195 192 177 180
159 173 176 178 172 166 167 167 173 175 180 187 188 191 192 194 195 201 212 218 221 217 212 208 202 200 200 197 192 199 189 187 199 201 192 205 198 198 203 183 177 180 167
149 153 159 153 153 158 166 174 177 177 185 187 189 194 195 192 199 207 212 213 219 218 210 203 200 203 202 198 195 203 195 188 190 194 188 202 196 192 201 188 194 197 180
134 137 142 150 156 162 167 175 178 183 184 182 186 195 198 200 206 210 209 207 211 214 208 202 204 205 202 201 202 199 194 191 192 193 194 203 188 199 209 201 203 219 193
125 135 147 155 159 160 161 171 174 176 176 176 187 197 204 209 211 208 204 206 204 202 200 206 207 205 203 202 202 196 191 189 191 191 192 196 190 194 196 201 211 205 167
101 121 141 144 144 142 146 160 169 175 177 180 190 202 207 208 204 202 204 203 203 208 204 201 204 206 204 209 199 194 191 183 185 187 191 195 189 185 186 191 187 171 167
111 112 118 127 133 145 154 166 172 177 179 189 199 202 199 200 201 204 203 202 209 211 198 202 206 211 220 218 201 192 191 184 183 190 194 194 181 176 174 177 174 167 171
120 126 128 140 149 162 167 178 185 183 180 190 199 200 198 203 210 208 204 210 215 210 209 212 208 212 224 217 204 197 186 186 187 186 185 192 183 165 175 185 179 197 187
127 125 132 139 146 152 162 178 171 176 176 178 196 203 198 205 210 208 209 214 215 216 217 216 213 211 224 210 199 195 189 186 186 187 187 181 184 191 181 173 175 215 240
134 135 135 135 133 131 150 142 147 166 173 190 204 212 207 207 209 211 214 212 210 216 214 208 211 212 226 210 198 187 187 190 193 191 188 185 190 196 175 163 176 202 285
119 113 105 94 91 86 112 113 141 177 205 217 220 221 215 215 219 221 221 216 207 209 204 213 215 213 223 212 194 184 189 192 194 191 191 190 192 187 177 177 177 191 220
121 114 104 105 133 135 111 115 156 223 233 228 227 225 224 225 220 224 223 214 213 204 202 210 213 217 223 212 190 178 190 193 190 196 204 207 195 191 183 180 189 202 193
113 116 111 107 134 129 130 151 227 244 248 237 234 237 234 236 235 218 225 207 196 206 212 212 213 217 219 213 197 181 187 184 192 204 206 205 195 193 187 187 193 180 159
110 115 119 111 32 153 145 187 242 245 238 247 251 253 251 243 226 211 215 215 208 212 218 214 217 221 215 211 193 185 190 188 195 208 200 198 195 189 189 189 178 165 162
130 122 112 123 259 255 226 223 241 239 223 253 267 261 246 244 239 228 220 215 216 220 223 218 219 221 217 211 205 202 204 203 197 198 189 179 175 180 189 192 196 191 187
165 144 154 208 259 252 251 259 244 219 254 261 260 263 255 242 243 246 241 232 231 220 217 222 217 213 222 221 201 191 198 201 197 176 162 169 180 191 206 210 211 204 195
189 159 175 231 265 272 268 255 236 208 220 253 262 260 261 260 244 244 273 287 249 233 224 221 218 223 216 201 196 199 197 187 172 159 181 199 201 204 204 204 209 209 209
Height
1511 1514 1517 1520 1522 1525 1527 1528 1530 1532 1534 1535 1536 1538 1539 1540 1541 1541 1542 1543 1543 1544 1544 1545 1546 1546 1547 1547 1547 1547 1548 1548 1548 1548 1547 1547 1547 1546 1546 1547 1547 1547 1547
1509 1512 1514 1517 1519 1522 1524 1526 1528 1530 1532 1533 1535 1536 1538 1538 1539 1540 1540 1541 1542 1542 1543 1543 1544 1545 1545 1545 1546 1546 1546 1546 1546 1546 1545 1545 1545 1544 1544 1544 1544 1544 1544
1503 1507 1511 1513 1516 1519 1521 1524 1526 1528 1530 1532 1534 1535 1536 1537 1537 1538 1538 1539 1540 1540 1541 1542 1542 1543 1543 1544 1544 1544 1544 1544 1545 1545 1545 1544 1543 1543 1542 1542 1542 1542 1542
1500 1503 1506 1509 1512 1515 1518 1521 1524 1526 1528 1530 1531 1532 1533 1533 1534 1535 1536 1537 1538 1538 1539 1540 1540 1541 1541 1542 1542 1542 1542 1543 1542 1543 1543 1543 1543 1542 1540 1540 1540 1539 1539
1495 1498 1501 1505 1509 1512 1516 1519 1521 1524 1526 1528 1529 1530 1531 1532 1533 1533 1534 1535 1536 1536 1537 1538 1538 1539 1539 1540 1540 1540 1540 1540 1540 1540 1540 1540 1540 1540 1540 1538 1537 1537 1536
1491 1495 1499 1503 1506 1510 1513 1516 1519 1521 1523 1525 1526 1528 1529 1530 1530 1530 1531 1532 1533 1534 1535 1535 1536 1536 1537 1537 1537 1538 1538 1538 1538 1538 1538 1538 1538 1537 1537 1536 1535 1534 1534
1488 1492 1496 1500 1503 1506 1509 1513 1515 1518 1520 1522 1523 1525 1526 1527 1528 1529 1529 1530 1531 1532 1533 1533 1533 1534 1534 1535 1535 1535 1535 1535 1535 1535 1535 1535 1535 1535 1535 1534 1533 1532 1532
1485 1488 1492 1496 1498 1502 1505 1508 1511 1514 1516 1518 1520 1522 1524 1525 1526 1527 1527 1528 1529 1530 1530 1531 1531 1531 1532 1532 1532 1532 1532 1533 1533 1533 1533 1533 1533 1532 1532 1532 1531 1530 1529
1480 1483 1488 1492 1495 1498 1501 1504 1507 1510 1513 1515 1517 1519 1521 1522 1523 1524 1525 1526 1527 1527 1528 1528 1528 1529 1529 1530 1530 1530 1530 1530 1530 1530 1530 1530 1530 1530 1529 1529 1529 1529 1527
1477 1480 1484 1488 1491 1495 1498 1501 1504 1507 1510 1512 1514 1515 1517 1519 1520 1521 1522 1523 1524 1524 1524 1525 1525 1526 1526 1527 1527 1527 1527 1528 1528 1528 1527 1527 1527 1527 1527 1526 1526 1526 1525
1475 1478 1481 1485 1489 1493 1495 1498 1501 1505 1508 1509 1511 1513 1513 1515 1517 1518 1518 1519 1520 1521 1521 1522 1522 1523 1523 1524 1524 1524 1524 1524 1525 1525 1525 1524 1524 1524 1524 1523 1523 1523 1522
1473 1476 1480 1484 1487 1490 1493 1497 1499 1502 1505 1506 1507 1509 1510 1511 1512 1513 1515 1516 1517 1517 1518 1519 1519 1520 1520 1520 1520 1521 1521 1521 1521 1522 1522 1521 1521 1521 1521 1520 1520 1520 1519
1472 1475 1479 1482 1484 1487 1491 1494 1497 1499 1501 1503 1505 1506 1507 1508 1508 1509 1511 1512 1513 1514 1514 1514 1515 1516 1516 1517 1517 1517 1518 1518 1518 1519 1519 1519 1518 1518 1518 1517 1517 1517 1516
1472 1475 1478 1480 1483 1485 1488 1491 1494 1496 1498 1499 1501 1502 1503 1504 1505 1506 1507 1508 1509 1509 1509 1511 1511 1512 1513 1513 1514 1514 1514 1515 1515 1515 1515 1516 1515 1515 1515 1515 1514 1514 1514
1473 1476 1477 1479 1481 1484 1487 1489 1490 1492 1494 1496 1498 1498 1500 1501 1502 1503 1504 1504 1505 1505 1506 1507 1507 1508 1508 1509 1509 1510 1511 1511 1511 1512 1512 1512 1512 1511 1512 1512 1511 1511 1511
1472 1475 1476 1478 1480 1483 1484 1486 1488 1489 1491 1493 1494 1495 1496 1498 1498 1499 1500 1500 1501 1501 1502 1503 1503 1504 1504 1504 1505 1506 1506 1507 1507 1508 1508 1508 1508 1508 1508 1509 1509 1509 1508
1473 1474 1476 1478 1479 1481 1482 1484 1485 1487 1489 1490 1491 1492 1492 1493 1494 1495 1495 1496 1496 1497 1498 1498 1499 1499 1500 1501 1501 1502 1502 1503 1503 1504 1504 1504 1504 1505 1505 1505 1505 1505 1505
1473 1474 1475 1476 1478 1479 1481 1482 1483 1484 1485 1486 1487 1488 1488 1489 1489 1490 1490 1491 1492 1492 1493 1494 1494 1495 1495 1496 1497 1498 1499 1499 1499 1500 1500 1501 1501 1501 1501 1501 1501 1501 1501
1471 1473 1475 1475 1477 1478 1478 1479 1480 1481 1482 1482 1482 1483 1483 1484 1484 1485 1485 1485 1486 1487 1488 1489 1490 1491 1491 1492 1493 1494 1494 1494 1495 1495 1496 1497 1497 1498 1498 1498 1498 1498 1498
1470 1471 1473 1474 1475 1476 1476 1476 1477 1478 1478 1478 1479 1479 1478 1479 1479 1479 1480 1481 1481 1482 1483 1484 1485 1486 1487 1487 1488 1489 1490 1490 1490 1491 1491 1492 1493 1493 1494 1494 1494 1494 1495
1469 1470 1471 1472 1473 1473 1474 1474 1474 1474 1475 1474 1475 1475 1475 1475 1474 1475 1476 1476 1477 1477 1478 1479 1479 1480 1481 1482 1482 1482 1484 1485 1485 1485 1486 1488 1489 1490 1490 1491 1491 1491 1492
1468 1469 1469 1469 1470 1470 1470 1470 1470 1470 1470 1471 1471 1471 1470 1470 1470 1470 1471 1471 1472 1472 1472 1473 1473 1474 1475 1476 1477 1477 1478 1480 1481 1481 1482 1483 1485 1486 1486 1487 1488 1489 1489
1466 1466 1466 1467 1468 1468 1468 1467 1467 1467 1467 1467 1466 1466 1466 1465 1466 1466 1466 1466 1466 1466 1466 1467 1467 1468 1469 1470 1471 1472 1473 1474 1476 1477 1478 1479 1481 1482 1483 1484 1484 1485 1485
1464 1464 1464 1464 1464 1465 1465 1464 1464 1463 1463 1462 1462 1462 1461 1461 1461 1461 1461 1461 1460 1461 1461 1461 1462 1463 1464 1464 1465 1466 1467 1469 1470 1472 1473 1475 1477 1478 1479 1480 1481 1481 1482
1460 1460 1461 1461 1461 1461 1461 1461 1460 1460 1458 1458 1457 1457 1457 1457 1456 1456 1456 1455 1455 1456 1456 1456 1457 1457 1457 1458 1460 1461 1462 1464 1465 1467 1469 1470 1471 1472 1474 1475 1476 1477 1478
1458 1458 1458 1458 1457 1457 1457 1457 1456 1456 1455 1454 1453 1453 1453 1452 1452 1451 1451 1450 1451 1451 1451 1452 1452 1452 1453 1454 1455 1456 1458 1460 1462 1463 1464 1465 1466 1467 1468 1470 1471 1473 1474